Regional Weather Roundup
Issued by NWS State College, PA

Home | Current Version | Previous Version | Graphics & Text | Print | Product List | Glossary On
Versions: 1 2 3 4 5 6 7 8 9 10 11 12 13 14 15 16 17 18 19 20 21 22 23 24 25 26 27 28 29 30 31 32 33 34 35 36 37 38 39 40 41 42 43 44 45 46 47 48 49 50
000
ASUS41 KCTP 240803
RWRCTP

REGIONAL WEATHER ROUNDUP
NATIONAL WEATHER SERVICE STATE COLLEGE PA
300 AM EST MON NOV 24 2014

Note: "fair" indicates few or no clouds below 12,000 feet with no
significant weather and/or obstructions to visibility.

* = STATION THAT DOES NOT REPORT PRECIPITATION /E.G. RAIN...SNOW...ETC/
    THUNDER OR FOG.

PAZ002>004-007>009-013>016-020>023-029>032-240900-
WESTERN PENNSYLVANIA

CITY           SKY/WX    TMP DP  RH WIND       PRES   REMARKS
ERIE           CLOUDY    58  49  72 S22G37    29.28F
MEADVILLE      CLOUDY    54  48  80 VRB7G21   29.33F
FRANKLIN*      MOCLDY    52  46  82 SE17G26   29.39F
NEW CASTLE       N/A     56  53  89 S12G18    29.36F
BEAVER COUNTY  NOT AVBL
BUTLER*        CLOUDY    54  48  82 S14G24    29.41F
PITTSBURGH INT CLOUDY    57  52  83 S12       29.38F
PITTSBURGH     CLOUDY    57  49  74 S12       29.40F
INDIANA*       MOCLDY    55  50  82 S18G28    29.50F
LATROBE        MOCLDY    59  52  77 SE15G23   29.46F
WASHINGTON CO* CLOUDY    57  52  82 S9        29.41F
$$

PAZ004>006-010>012-017>019-024>028-033>037-041-042-045-046-049>053-240900-
CENTRAL PENNSYLVANIA

CITY           SKY/WX    TMP DP  RH WIND       PRES   REMARKS
BRADFORD       CLOUDY    49  46  90 SE17G29   29.47F
DUBOIS         CLOUDY    50  48  93 SE15G23   29.47F
CLEARFIELD     CLOUDY    48  47  96 SE5       29.54F
JOHNSTOWN      CLOUDY    50  48  93 S23G31    29.51F
ALTOONA        CLOUDY    53  51  93 S10G21    29.57F
STATE COLLEGE  DRIZZLE   50  49  93 SW3       29.59F
WILLIAMSPORT   HVY RAIN  52  51  97 VRB3      29.58F FOG
SELINSGROVE    LGT RAIN  57  53  86 S12G26    29.59F FOG
FT INDIANTOWN  LGT RAIN  50  50  99 NE8       29.63F FOG
CAPITAL CITY   LGT RAIN  59  56  89 S16G22    29.63F
HARRISBURG     LGT RAIN  56  54  93 SE14      29.63F
YORK           LGT RAIN  60  57  89 S9G20     29.64F
$$

PAZ038>040-043-044-047-048-054-055-060>062-067>071-240900-
EASTERN PENNSYLVANIA

CITY           SKY/WX    TMP DP  RH WIND       PRES   REMARKS
SCRANTON       RAIN      55  49  80 SE20G30   29.64F
MOUNT POCONO   HVY RAIN  47  45  93 E13       29.72F FOG
ALLENTOWN      HVY RAIN  56  52  86 SE16G22   29.71F FOG
QUAKERTOWN*    CLOUDY    55  55 100 SE10G20   29.73F
READING        LGT RAIN  58  55  90 SE15G21   29.66F
LANCASTER      LGT RAIN  58  56  93 SE16G26   29.65F FOG
COATESVILLE    LGT RAIN  59  59 100 SE14G24   29.69F
POTTSTOWN      RAIN      56  55  97 VRB6      29.71F FOG
BLUE BELL      CLOUDY    59  59 100 SE8G17    29.72F
DOYLESTOWN     RAIN      54  54 100 SE6       29.73F FOG
WILLOW GROVE   NOT AVBL
NORTH PHILA    RAIN      62  57  83 SE10G21   29.76F
PHILADELPHIA   LGT RAIN  62  59  90 S20G26    29.73F FOG
$$



USA.gov is the U.S. government's official web portal to all federal, state and local government web resources and services.